Weather History for Lancaster, CA

Change the Weather History Date:

Thursday, January 3, 2013

  Actual Average Record
Temperature  
Mean Temperature 35 °F 44 °F  
Max Temperature 57 °F 58 °F 72 °F (2007)
Min Temperature 13 °F 30 °F 12 °F (1976)
Degree Days  
Heating Degree Days 30    
Month to date heating degree days 93  
Since 1 July heating degree days 1163  
Cooling Degree Days 0    
Month to date cooling degree days 0  
Year to date cooling degree days 0  
Moisture  
Dew Point 6 °F    
Average Humidity 37    
Maximum Humidity 61    
Minimum Humidity 12    
Precipitation  
Precipitation 0.00 in 0.05 in 0.58 in (2005)
Month to date precipitation 0.00 0.15  
Year to date precipitation 0.00 0.15  
Since 1 July precipitation 0.16 2.62  
Snow  
Snow 0.00 in - T in (1995)
Month to date snowfall 0.0  
Since 1 July snowfall 0.0  
Snow Depth 0.00 in    
Sea Level Pressure  
Sea Level Pressure 30.29 in    
Wind  
Wind Speed 6 mph (North)    
Max Wind Speed 23 mph    
Max Gust Speed 33 mph    
Visibility 10 miles    
Events      
T = Trace of Precipitation, MM = Missing Value Source: NWS Daily Summary

Daily Weather History Graph

Daily Weather History Graph

Search for Another Location

Airport:

Trip Planner

Search our weather history database for the weather conditions in past years. The results will help you decide how hot, cold, wet, or windy it might be!

Date:

Astronomy

Jan. 03, 2013 Rise Set
Actual Time 7:00 AM PST 4:54 PM PST
Civil Twilight 6:32 AM PST 5:22 PM PST
Nautical Twilight 6:01 AM PST 5:54 PM PST
Astronomical Twilight 5:30 AM PST 6:24 PM PST
Moon 11:17 PM PST (1/3) 10:30 AM PST (1/3)
Length of Visible Light 10h 49m
Length of Day
9h 54m
Waning Gibbous, 64% of the Moon is Illuminated
Jan 3
Waning Gibbous
Jan 4
Last Quarter
Jan 11
New
Jan 18
First Quarter
Jan 26
Full

Hourly Weather History & Observations

Time (PST) Temp. Windchill Dew Point Humidity Pressure Visibility Wind Dir Wind Speed Gust Speed Precip Events Conditions
12:56 AM 21.9 °F 13.4 °F 6.1 °F 51% 30.23 in 10.0 mi NW 6.9 mph - N/A   Clear
1:56 AM 21.0 °F 13.4 °F 6.1 °F 53% 30.24 in 10.0 mi West 5.8 mph - N/A   Clear
2:56 AM 19.0 °F - 3.9 °F 52% 30.24 in 10.0 mi Calm Calm - N/A   Clear
3:56 AM 19.0 °F - 3.9 °F 52% 30.23 in 10.0 mi Calm Calm - N/A   Clear
4:56 AM 19.9 °F - 5.0 °F 52% 30.26 in 10.0 mi Calm Calm - N/A   Clear
5:56 AM 12.9 °F 5.2 °F 1.0 °F 59% 30.30 in 10.0 mi West 4.6 mph - N/A   Clear
6:56 AM 24.1 °F 19.7 °F 8.1 °F 51% 30.30 in 10.0 mi SW 3.5 mph - N/A   Clear
7:56 AM 21.0 °F - 7.0 °F 55% 30.34 in 10.0 mi Calm Calm - N/A   Clear
8:56 AM 32.0 °F - 10.9 °F 42% 30.34 in 10.0 mi Calm Calm - N/A   Clear
9:56 AM 37.0 °F - 10.9 °F 34% 30.36 in 10.0 mi Calm Calm - N/A   Clear
10:56 AM 46.9 °F - 12.9 °F 25% 30.33 in 10.0 mi ENE 5.8 mph - N/A   Clear
11:56 AM 53.1 °F - 8.1 °F 16% 30.29 in 10.0 mi ENE 12.7 mph - N/A   Clear
12:56 PM 54.0 °F - 8.1 °F 16% 30.28 in 10.0 mi ENE 13.8 mph - N/A   Clear
1:56 PM 55.9 °F - 8.1 °F 15% 30.25 in 10.0 mi ENE 11.5 mph - N/A   Clear
2:56 PM 55.9 °F - 3.9 °F 12% 30.26 in 10.0 mi ENE 13.8 mph - N/A   Clear
3:56 PM 55.0 °F - 5.0 °F 13% 30.26 in 10.0 mi NE 11.5 mph - N/A   Clear
4:56 PM 48.9 °F - 7.0 °F 18% 30.27 in 10.0 mi NE 6.9 mph - N/A   Clear
5:56 PM 44.1 °F 41.5 °F 5.0 °F 20% 30.30 in 10.0 mi East 4.6 mph - N/A   Clear
6:56 PM 33.1 °F 26.9 °F 5.0 °F 31% 30.31 in 10.0 mi NE 6.9 mph - N/A   Clear
7:56 PM 33.1 °F - 3.0 °F 28% 30.33 in 10.0 mi Calm Calm - N/A   Clear
8:56 PM 26.1 °F 19.4 °F 1.9 °F 35% 30.33 in 10.0 mi WNW 5.8 mph - N/A   Clear
9:56 PM 25.0 °F 18.1 °F 3.0 °F 39% 30.34 in 10.0 mi WNW 5.8 mph - N/A   Clear
10:56 PM 24.1 °F 17.0 °F 1.9 °F 38% 30.33 in 10.0 mi WSW 5.8 mph - N/A   Clear
11:17 PM 21.2 °F - 3.2 °F 46% 30.28 in 10.0 mi North - - N/A   Clear
11:56 PM 19.0 °F 9.0 °F 1.0 °F 46% 30.34 in 10.0 mi WNW 8.1 mph - N/A   Clear